Weather History for Aberdeen, SD

Change the Weather History Date:

Wednesday, December 26, 2012

  Actual Average Record
Temperature  
Mean Temperature 5 °F 13 °F  
Max Temperature 10 °F 23 °F 54 °F (1907)
Min Temperature 0 °F 3 °F -29 °F (1990)
Degree Days  
Heating Degree Days 60 52  
Month to date heating degree days 1237 1268  
Since 1 July heating degree days 3132 3231  
Cooling Degree Days 0 0  
Month to date cooling degree days 0 0  
Year to date cooling degree days 764 525  
Moisture  
Dew Point 1 °F    
Average Humidity 77    
Maximum Humidity 88    
Minimum Humidity 66    
Precipitation  
Precipitation 0.02 in 0.02 in 1.00 in (1916)
Month to date precipitation 0.71 0.43  
Year to date precipitation 14.60 21.63  
Snow  
Snow 0.60 in - - ()
Month to date snowfall 12.5  
Since 1 July snowfall 13.1  
Snow Depth 3.00 in    
Sea Level Pressure  
Sea Level Pressure 30.31 in    
Wind  
Wind Speed 5 mph (SE)    
Max Wind Speed 9 mph    
Max Gust Speed 12 mph    
Visibility 7 miles    
Events Snow    
T = Trace of Precipitation, MM = Missing Value Source: NWS Daily Summary

Daily Weather History Graph

Daily Weather History Graph

Search for Another Location

Airport:

Trip Planner

Search our weather history database for the weather conditions in past years. The results will help you decide how hot, cold, wet, or windy it might be!

Date:

Astronomy

Dec. 26, 2012 Rise Set
Actual Time 8:12 AM CST 4:56 PM CST
Civil Twilight 7:38 AM CST 5:30 PM CST
Nautical Twilight 7:00 AM CST 6:08 PM CST
Astronomical Twilight 6:24 AM CST 6:44 PM CST
Moon 3:52 PM CST 6:35 AM CST
Length of Visible Light 9h 52m
Length of Day
8h 43m
Waxing Gibbous, 97% of the Moon is Illuminated
Dec 26
Waxing Gibbous
Dec 28
Full
Jan 4
Last Quarter
Jan 11
New
Jan 18
First Quarter

Hourly Weather History & Observations

Time (CST) Temp. Windchill Dew Point Humidity Pressure Visibility Wind Dir Wind Speed Gust Speed Precip Events Conditions
12:03 AM 6.8 °F -3.5 °F 1.4 °F 79% 30.35 in 1.8 mi South 5.8 mph - 0.00 in Snow Light Snow
12:11 AM 6.8 °F -4.8 °F 1.4 °F 79% 30.34 in 2.5 mi SSE 6.9 mph - 0.00 in Snow Light Snow
12:20 AM 6.8 °F -4.8 °F 1.4 °F 79% 30.34 in 4.0 mi South 6.9 mph - 0.00 in Snow Light Snow
12:53 AM 5.0 °F -5.6 °F 1.0 °F 84% 30.43 in 9.0 mi SSE 5.8 mph - 0.00 in   Mostly Cloudy
1:53 AM 5.0 °F -6.9 °F -0.0 °F 80% 30.41 in 10.0 mi SSE 6.9 mph - N/A   Overcast
2:53 AM 6.1 °F -5.6 °F 1.0 °F 80% 30.40 in 3.0 mi South 6.9 mph - 0.01 in Snow Light Snow
3:18 AM 6.8 °F -3.5 °F 1.4 °F 79% 30.31 in 3.0 mi South 5.8 mph - 0.00 in Snow Light Snow
3:27 AM 6.8 °F -0.1 °F 1.4 °F 79% 30.31 in 3.0 mi South 3.5 mph - 0.00 in Snow Light Snow
3:53 AM 6.1 °F -0.9 °F 1.0 °F 80% 30.40 in 5.0 mi South 3.5 mph - 0.00 in Snow Light Snow
4:06 AM 5.0 °F -2.1 °F 1.4 °F 85% 30.30 in 2.0 mi South 3.5 mph - 0.00 in Snow Light Snow
4:20 AM 5.0 °F - 1.4 °F 85% 30.29 in 3.0 mi Calm Calm - 0.01 in Snow Light Snow
4:53 AM 6.1 °F - 1.0 °F 80% 30.39 in 4.0 mi Calm Calm - 0.01 in Snow Light Snow
5:42 AM 6.8 °F - 1.4 °F 79% 30.28 in 2.5 mi Calm Calm - 0.00 in Snow Light Snow
5:53 AM 6.1 °F - 1.0 °F 80% 30.38 in 2.0 mi Calm Calm - 0.00 in Snow Light Snow
6:02 AM 6.8 °F - 1.4 °F 79% 30.28 in 2.5 mi Calm Calm - 0.00 in Snow Light Snow
6:10 AM 6.8 °F - 1.4 °F 79% 30.28 in 3.0 mi Calm Calm - 0.00 in Snow Light Snow
6:53 AM 6.1 °F - 1.9 °F 83% 30.38 in 4.0 mi Calm Calm - 0.00 in Snow Light Snow
7:53 AM 7.0 °F - 3.0 °F 84% 30.37 in 5.0 mi Calm Calm - 0.00 in Snow Light Snow
8:53 AM 7.0 °F -1.7 °F 3.0 °F 84% 30.37 in 5.0 mi SSW 4.6 mph - 0.00 in Snow Light Snow
9:53 AM 8.1 °F -2.0 °F 3.0 °F 80% 30.36 in 7.0 mi SSE 5.8 mph - 0.00 in Snow Light Snow
10:53 AM 6.1 °F -5.6 °F -0.0 °F 76% 30.36 in 10.0 mi SSE 6.9 mph - 0.00 in   Overcast
11:53 AM 7.0 °F -5.7 °F 1.0 °F 77% 30.34 in 10.0 mi SSE 8.1 mph - N/A   Partly Cloudy
12:53 PM 6.1 °F -4.3 °F -0.0 °F 76% 30.31 in 10.0 mi SE 5.8 mph - N/A   Clear
1:53 PM 8.1 °F -2.0 °F 1.0 °F 73% 30.29 in 10.0 mi SE 5.8 mph - N/A   Clear
2:53 PM 10.4 °F -0.4 °F 1.4 °F 67% 30.18 in 10.0 mi ESE 6.9 mph - N/A   Clear
3:53 PM 6.1 °F -2.8 °F -0.9 °F 73% 30.27 in 10.0 mi East 4.6 mph - N/A   Mostly Cloudy
4:53 PM 3.0 °F -8.0 °F -2.0 °F 80% 30.26 in 10.0 mi East 5.8 mph - N/A   Overcast
5:53 PM 3.9 °F -9.4 °F -2.0 °F 76% 30.26 in 10.0 mi East 8.1 mph - N/A   Overcast
6:53 PM 6.1 °F -4.3 °F -0.9 °F 73% 30.26 in 10.0 mi East 5.8 mph - N/A   Overcast
7:53 PM 3.0 °F -9.3 °F -2.0 °F 80% 30.26 in 10.0 mi ENE 6.9 mph - N/A   Mostly Cloudy
8:53 PM 5.0 °F -6.9 °F -0.0 °F 80% 30.24 in 10.0 mi East 6.9 mph - N/A   Overcast
9:53 PM 7.0 °F -4.5 °F 1.0 °F 77% 30.24 in 10.0 mi ENE 6.9 mph - N/A   Mostly Cloudy
10:53 PM 7.0 °F -1.7 °F 1.0 °F 77% 30.25 in 10.0 mi ENE 4.6 mph - N/A   Clear
11:53 PM 7.0 °F 0.1 °F 1.0 °F 77% 30.24 in 10.0 mi NE 3.5 mph - N/A   Clear